sat.trackr.live / text

‹ back to catalog

STARLINK-4389

NORAD 53475 · 2022-099L

PAYLOAD ACTIVE UNKNOWN

§ Identity

Operator
Country
US
Launch date
2022-08-12
Launch site
AFWTR
Launch vehicle
Mass (kg)
RCS (m²)

Purposes: comms

External: N2YO · Heavens-Above · Gunter

§ Orbital elements

Epoch: 2026-09-20T04:00:03.000096Z

Period
93.20 min
Inclination
97.4960°
Eccentricity
0.0001690
Mean motion
15.45024957 rev/d
Perigee alt
430.2 km
Apogee alt
432.5 km
Semi-major
6,809.4 km
B*
1.3535e-2
RAAN
30.4240°
Arg perigee
86.4521°
Mean anomaly
263.3457°
Rev number
560

§ Raw data

STARLINK-43891 53475U 22099L   26263.16670139  .00688018  00000+0  13535-1 0  99962 53475  97.4960  30.4240 0001690  86.4521 263.3457 15.45024957  5609

JSON: /api/v1/satellites/53475 · /tle

For live sub-satellite position, see the globe view (requires WebGL).

§ Visibility from observer

Set your observer location to see the next 7 days of passes ≥ 10°. The values pass through the URL so the page stays shareable.

No JS? Fill the form by hand. The geolocation button needs JavaScript.